Location: Malmö
(55.6050°N, 13.0038°E)
Time: 23:39:42
(UTC+01:00)

ISS - Pass Details

Date: 01 August 2017
Orbit: 402 x 407 km, 51.6° (Epoch: 22 January)

Event Time Altitude Azimuth Distance (km) Brightness Sun altitude
Rises 00:22:32 0° 273° (W) 2,321 0.2 -15.5°
Reaches altitude 10° 00:25:02 10° 254° (WSW) 1,458 -1.1 -15.6°
Enters shadow 00:26:20 16° 233° (SW) 1,151 -1.8 -15.7°
